When you browse on this site, cookies collect data to enhance your experience and personalize the content and advertising you see.
Visit our Privacy Policy to learn more. By continuing to use the site, you agree to this use of cookies and data.
  • In Czech Republic
  • List of Countries
  • For 7 days
  • Water Temperature
  • Weather Map
  • Weather Widgets
  • user-avatar
    Login

    Hourly Weather Zapolnyy Olhovec

    Today, 22 January, Wednesday

    Time Temperature Precipitation Wind Pressure Humidity
    00:00 -1°C° 0.1 mm 8 mps 729 mmHg 92%
    01:00 -2°C° 0.1 mm 8 mps 729 mmHg 86%
    02:00 -2°C° 0 mm 7 mps 730 mmHg 84%
    03:00 -3°C° 0 mm 7 mps 729 mmHg 85%
    04:00 -3°C° 0 mm 6 mps 729 mmHg 86%
    05:00 -4°C° 0 mm 6 mps 728 mmHg 87%
    06:00 -4°C° 0 mm 6 mps 728 mmHg 87%
    07:00 -4°C° 0 mm 6 mps 728 mmHg 88%
    08:00 -4°C° 0 mm 6 mps 727 mmHg 88%
    09:00 -4°C° 0 mm 6 mps 727 mmHg 87%
    10:00 -4°C° 0 mm 5 mps 726 mmHg 87%
    11:00 -2°C° 0 mm 5 mps 726 mmHg 87%
    12:00 -2°C° 0 mm 5 mps 725 mmHg 88%
    13:00 -2°C° 0 mm 5 mps 725 mmHg 88%
    14:00 -2°C° 0 mm 4 mps 724 mmHg 89%
    15:00 -2°C° 0.1 mm 5 mps 724 mmHg 91%
    16:00 -2°C° 0.1 mm 5 mps 723 mmHg 93%
    17:00 -3°C° 0.1 mm 6 mps 723 mmHg 94%
    18:00 -4°C° 0.5 mm 6 mps 723 mmHg 92%
    19:00 -4°C° 0.5 mm 6 mps 723 mmHg 90%
    20:00 -4°C° 0.5 mm 6 mps 724 mmHg 87%
    21:00 -5°C° 0 mm 6 mps 724 mmHg 87%
    22:00 -6°C° 0 mm 6 mps 724 mmHg 87%
    23:00 -6°C° 0 mm 6 mps 725 mmHg 87%

    Tomorrow, 23 January, Thursday

    Time Temperature Precipitation Wind Pressure Humidity
    00:00 -8°C° 0 mm 6 mps 725 mmHg 88%
    01:00 -8°C° 0 mm 6 mps 726 mmHg 89%
    02:00 -8°C° 0 mm 6 mps 727 mmHg 89%
    03:00 -8°C° 0 mm 6 mps 727 mmHg 90%
    04:00 -8°C° 0 mm 6 mps 727 mmHg 91%
    05:00 -8°C° 0 mm 6 mps 727 mmHg 92%
    06:00 -9°C° 0 mm 7 mps 728 mmHg 90%
    07:00 -9°C° 0 mm 7 mps 729 mmHg 88%
    08:00 -9°C° 0 mm 7 mps 729 mmHg 86%
    09:00 -9°C° 0 mm 7 mps 730 mmHg 83%
    10:00 -9°C° 0 mm 7 mps 730 mmHg 80%
    11:00 -11°C° 0 mm 7 mps 731 mmHg 77%
    12:00 -11°C° 0.1 mm 7 mps 732 mmHg 78%
    13:00 -11°C° 0.1 mm 7 mps 732 mmHg 79%
    14:00 -9°C° 0.1 mm 7 mps 733 mmHg 79%
    15:00 -10°C° 0 mm 6 mps 733 mmHg 80%
    16:00 -10°C° 0 mm 6 mps 733 mmHg 81%
    17:00 -11°C° 0 mm 5 mps 733 mmHg 81%
    18:00 -11°C° 0 mm 5 mps 734 mmHg 83%
    19:00 -10°C° 0 mm 5 mps 734 mmHg 85%
    20:00 -10°C° 0 mm 5 mps 734 mmHg 87%
    21:00 -10°C° 0.1 mm 5 mps 734 mmHg 87%
    22:00 -10°C° 0.1 mm 5 mps 735 mmHg 87%
    23:00 -10°C° 0.1 mm 5 mps 735 mmHg 88%

    Day after tomorrow, 24 January, Friday

    Time Temperature Precipitation Wind Pressure Humidity
    00:00 -10°C° 0 mm 4 mps 735 mmHg 88%
    01:00 -10°C° 0 mm 4 mps 736 mmHg 88%
    02:00 -10°C° 0 mm 3 mps 736 mmHg 89%
    03:00 -12°C° 0 mm 3 mps 736 mmHg 89%
    04:00 -12°C° 0 mm 3 mps 736 mmHg 90%
    05:00 -10°C° 0 mm 2 mps 736 mmHg 90%
    06:00 -10°C° 0 mm 3 mps 736 mmHg 91%
    07:00 -10°C° 0 mm 3 mps 736 mmHg 92%
    08:00 -10°C° 0 mm 4 mps 736 mmHg 93%
    09:00 -9°C° 0 mm 4 mps 735 mmHg 93%
    10:00 -7°C° 0 mm 5 mps 735 mmHg 93%
    11:00 -6°C° 0 mm 6 mps 734 mmHg 93%
    12:00 -7°C° 0.3 mm 7 mps 733 mmHg 93%
    13:00 -6°C° 0.3 mm 7 mps 733 mmHg 94%
    14:00 -6°C° 0.3 mm 8 mps 732 mmHg 94%
    15:00 -6°C° 0.2 mm 8 mps 731 mmHg 95%
    16:00 -5°C° 0.2 mm 8 mps 731 mmHg 95%
    17:00 -5°C° 0.2 mm 8 mps 730 mmHg 95%
    18:00 -3°C° 0.2 mm 7 mps 730 mmHg 96%
    19:00 -2°C° 0.2 mm 7 mps 730 mmHg 97%
    20:00 -1°C° 0.2 mm 7 mps 730 mmHg 97%
    21:00 -1°C° 0 mm 7 mps 730 mmHg 97%
    22:00 -2°C° 0 mm 7 mps 730 mmHg 96%
    23:00 -2°C° 0 mm 7 mps 730 mmHg 96%

    25 January, Saturday

    Time Temperature Precipitation Wind Pressure Humidity
    00:00 -2°C° 0 mm 6 mps 730 mmHg 96%
    01:00 -2°C° 0 mm 6 mps 730 mmHg 97%
    02:00 -1°C° 0 mm 5 mps 730 mmHg 97%
    03:00 -1°C° 0.1 mm 5 mps 730 mmHg 97%
    04:00 -1°C° 0.1 mm 5 mps 729 mmHg 97%
    05:00 -1°C° 0.1 mm 5 mps 729 mmHg 97%
    06:00 -1°C° 0.1 mm 5 mps 729 mmHg 97%
    07:00 -1°C° 0.1 mm 5 mps 729 mmHg 97%
    08:00 -1°C° 0.1 mm 5 mps 729 mmHg 97%
    09:00 -1°C° 0.1 mm 5 mps 729 mmHg 98%
    10:00 -1°C° 0.1 mm 5 mps 729 mmHg 98%
    11:00 -1°C° 0.1 mm 5 mps 728 mmHg 99%
    12:00 -2°C° 0.1 mm 6 mps 728 mmHg 98%
    13:00 -2°C° 0.1 mm 6 mps 728 mmHg 98%
    14:00 -2°C° 0.1 mm 7 mps 728 mmHg 98%
    15:00 -2°C° 0.1 mm 7 mps 728 mmHg 96%
    16:00 -2°C° 0.1 mm 7 mps 728 mmHg 95%
    17:00 -2°C° 0.1 mm 7 mps 728 mmHg 93%
    18:00 -2°C° 0 mm 8 mps 728 mmHg 91%
    19:00 -2°C° 0 mm 8 mps 728 mmHg 90%
    20:00 -2°C° 0 mm 8 mps 728 mmHg 88%
    21:00 -4°C° 0 mm 8 mps 728 mmHg 88%
    22:00 -4°C° 0 mm 8 mps 729 mmHg 87%
    23:00 -4°C° 0 mm 9 mps 729 mmHg 87%

    26 January, Sunday

    Time Temperature Precipitation Wind Pressure Humidity
    00:00 -5°C° 0 mm 8 mps 729 mmHg 85%
    01:00 -5°C° 0 mm 8 mps 730 mmHg 82%
    02:00 -6°C° 0 mm 7 mps 730 mmHg 80%
    03:00 -6°C° 0 mm 7 mps 731 mmHg 80%
    04:00 -6°C° 0 mm 7 mps 731 mmHg 80%
    05:00 -6°C° 0 mm 6 mps 732 mmHg 79%
    06:00 -6°C° 0 mm 6 mps 732 mmHg 81%
    07:00 -6°C° 0 mm 6 mps 733 mmHg 83%
    08:00 -6°C° 0 mm 6 mps 733 mmHg 85%
    09:00 -5°C° 0 mm 6 mps 734 mmHg 84%
    10:00 -5°C° 0 mm 6 mps 735 mmHg 83%
    11:00 -4°C° 0 mm 7 mps 735 mmHg 82%
    12:00 -4°C° 0 mm 6 mps 735 mmHg 81%
    13:00 -4°C° 0 mm 6 mps 736 mmHg 80%
    14:00 -4°C° 0 mm 5 mps 736 mmHg 79%
    15:00 -5°C° 0 mm 5 mps 737 mmHg 81%
    16:00 -4°C° 0 mm 4 mps 737 mmHg 84%
    17:00 -5°C° 0 mm 3 mps 737 mmHg 86%
    18:00 -5°C° 0 mm 3 mps 738 mmHg 88%
    19:00 -5°C° 0 mm 3 mps 738 mmHg 90%
    20:00 -4°C° 0 mm 2 mps 739 mmHg 91%
    21:00 -4°C° 0 mm 2 mps 739 mmHg 92%
    22:00 -2°C° 0 mm 1 mps 740 mmHg 92%
    23:00 -2°C° 0 mm 1 mps 740 mmHg 92%

    27 January, Monday

    Time Temperature Precipitation Wind Pressure Humidity
    00:00 -3°C° 0 mm 1 mps 740 mmHg 92%
    01:00 -3°C° 0 mm 1 mps 740 mmHg 92%
    02:00 -3°C° 0 mm 1 mps 741 mmHg 91%
    03:00 -3°C° 0 mm 1 mps 741 mmHg 92%
    04:00 -5°C° 0 mm 2 mps 741 mmHg 92%
    05:00 -5°C° 0 mm 2 mps 741 mmHg 93%
    06:00 -5°C° 0 mm 3 mps 741 mmHg 94%
    07:00 -5°C° 0 mm 3 mps 741 mmHg 94%
    08:00 -5°C° 0 mm 4 mps 741 mmHg 95%
    09:00 -4°C° 0 mm 4 mps 741 mmHg 94%
    10:00 -4°C° 0 mm 4 mps 741 mmHg 94%
    11:00 -3°C° 0 mm 4 mps 741 mmHg 94%
    12:00 -3°C° 0 mm 4 mps 741 mmHg 94%
    13:00 -3°C° 0 mm 4 mps 740 mmHg 93%
    14:00 -3°C° 0 mm 4 mps 740 mmHg 93%
    15:00 -4°C° 0 mm 5 mps 740 mmHg 93%
    16:00 -4°C° 0 mm 5 mps 739 mmHg 93%
    17:00 -4°C° 0 mm 5 mps 739 mmHg 93%
    18:00 -4°C° 0.1 mm 5 mps 739 mmHg 94%
    19:00 -4°C° 0.1 mm 5 mps 738 mmHg 94%
    20:00 -4°C° 0.1 mm 5 mps 738 mmHg 95%
    21:00 -4°C° 0.1 mm 6 mps 738 mmHg 95%
    22:00 -4°C° 0.1 mm 6 mps 737 mmHg 96%
    23:00 -4°C° 0.1 mm 6 mps 737 mmHg 96%
    Show more